FENGYUN 1C DEB

Satellite information

Favourite Embed

Satellite Type and Status

DEBRISIN ORBIT

Key statistics

Satellite FENGYUN 1C DEB at a glance.

Uptime

9555

Days in orbit

Revolutions

≈ 14.3

Per day

Orbit

SSO

Sun Synchronous Orbit

Inclination

99.2

Latest

Satellite identification and parameters

Extended collection of information and parameters for FENGYUN 1C DEB.

Object identification

Identified? True

Debris? True

Object name: FENGYUN 1C DEB

International designator: 1999-025DC

Object number (NORAD): 29810

Object ID (CCSDS): 29810

Country: PEOPLES REPUBLIC OF CHINA (PRC)

Current information (Y/N): Y

RCS size: SMALL

Orbital parameters

Period: 100.779 minutes

Inclination: 99.223 deg

SMA: 7173.627 km

Apoapsis: 844.247 km

Periapsis: 746.738 km

RAAN: 214.3485 deg

Eccentricy: 0.0067964

Argument of periapsis: 118.8474 deg

Mean anomaly: 10.211 deg

Mean motion: 14.28875961 rev/day

Mean motion (dot): 0.00000488 rev/day2

B* drag term: 0.00020754 1/REarth

Two-line elements (TLE)

Creation date: July 5, 2025, 5:45 p.m.

Reference frame: TEME

Reference center: EARTH

Epoch: July 5, 2025, 2:20 p.m. UTC

TLE line 0: 0 FENGYUN 1C DEB

TLE line 1: 1 29810U 99025DC 25186.59769245 .00000488 00000-0 20754-3 0 9995

TLE line 2: 2 29810 99.2230 214.3485 0067964 118.8474 10.2110 14.28875961960909

Live tracking on map

Real-time ground track for satellite FENGYUN 1C DEB.

In-orbit conjunctions

A list of the most updated potential collisions computed for object FENGYUN 1C DEB.

Target Orbit TCA Probability of collision Miss distance Type
COSMOS 249 MEO 2024-10-22 03:32:13 0.0001197089 325.0 (m) PAYLOAD
THORAD AGENA D DEB SSO 2024-08-23 02:35:39 0.0001093415 198.0 (m) DEBRIS

Associated space launch

Chinese polar orbiting meteorological satellite

FENGYUN 1C DEB was lifted into orbit during the mission ‘Long March 4B | Feng Yun 1C’, on board a Long March 4B space rocket.

The launch took place on May 10, 1999, 1:33 a.m. from Launch Complex 7.

For more information about the launch, click the button.

Launch to space Long March 4B | Feng Yun 1C
Long March 4B | Feng Yun 1C

Agency: N/A

Status: Launch Successful

Launch date: May 10, 1999, 1:33 a.m. UTC

Rocket: Long March 4B

Launch pad: Launch Complex 7

Location: Taiyuan Satellite Launch Center, People's Republic of China

...

Latest news about this satellite

There are no fresh news available about this satellite. Check back as we update our databases every day.


Newsletter sign-up

Weekly statistics, charts and insights to help you stay on top of the space industry.